Погода в Бочилове

Россия / Республика Карелия     61°51′02″N   36°14′27″E
темп.,
°C
ветер,
м/с
пор.,
м/с
влажн.,
%
обл.,
%
осадки,
мм/ч
давл.,
гПа
погр.,
м
11 апреля, вс
вс1100:00+1ююз51295100 2.1 1013674
03:000юз513835 2.1 1016643
06:00−1юз411895 0.0 1018434
09:00+1ююз513895 0.0 1020608
12:00+4юз614821 0.0 1022852
15:00+5зюз512815 0.1 10241101
18:00+4юз411814 0.0 1027492
21:000юз31087100 0.0 1029176
12 апреля, пн
пн1200:00−1ююз269096 0.0 1031108
03:00−2ююв249444 0.0 103367
06:00−2юв278840 0.0 103296
09:00+5ююв41284100 0.0 1031433
12:00+6ю51392100 0.0 1029514
15:00+10ю5128313 0.0 1027656
18:00+9ю51484100 0.0 1026412
21:00+8ю5148745 0.0 1026355
13 апреля, вт
вт1300:00+7ю5158852 0.0 1025454
03:00+6ююв4129120 0.0 1023326
06:00+5ююв41194100 0.0 1022301
09:00+7ю41092100 0.0 1021387
12:00+8ю5987100 0.0 1020445
15:00+10ю478055 0.0 1020475
18:00+9ю2485100 0.0 1019108
21:00+7ю2285100 0.0 102038
14 апреля, ср
ср1400:00+6ююз229380 0.0 101947
03:00+5зюз2894100 0.0 1019242
06:00+3юз3986100 0.3 1019399
09:00+3юз378199 0.5 1020358
12:00+5зюз4766100 0.0 1020659
15:00+6з4759100 0.0 1021860
18:00+4зсз376993 0.0 1022525
21:00+2сз1276100 0.0 102321
15 апреля, чт
чт1500:00+1ссз2680100 0.0 1024174
03:00−1ссз228683 0.0 102425
06:00−1сз23885 0.0 102470
09:00+2зсз35695 0.0 1025647
12:00+4зсз45562 0.0 1025968
15:00+5сз475731 0.0 10261278
18:00+5ссз510675 0.1 10271169
21:00+2с411721 0.1 1029639